Location: Newark
(30.2500°N, 97.7500°W)
Time: 14:47:28
(UTC+00:00)

Hubble Space Telescope - Visible Passes

Search period start: 07 December 2019 00:00
Search period end: 17 December 2019 00:00
Orbit: 536 x 540 km, 28.5° (Epoch: 06 December)

Date Brightness Start Highest point End Pass type
(mag) Time Alt. Az. Time Alt. Az. Time Alt. Az.
10 Dec 3.7 12:17:56 10° S 12:19:35 12° SSE 12:21:15 10° SE visible
11 Dec 3.5 12:06:24 10° SSW 12:08:54 16° SSE 12:11:24 10° ESE visible
12 Dec 3.2 11:55:13 10° SSW 11:58:13 19° SSE 12:01:14 10° ESE visible
13 Dec 2.8 11:44:27 11° SSW 11:47:32 24° SSE 11:50:54 10° ESE visible
14 Dec 2.4 11:35:05 21° SSW 11:36:53 29° SSE 11:40:29 10° E visible
15 Dec 2.0 11:25:33 32° S 11:26:14 35° SSE 11:30:01 10° E visible
16 Dec 1.8 11:15:54 40° SSE 11:15:54 40° SSE 11:19:30 10° E visible
